Bellingham, WA
on Friday, January 18, 2013

Friday
Previous Day Next Day
Daily Summary
 ActualAverageRecord
Temperature
Mean Temperature °F 40°F  
Max Temperature 39°F 46°F 58°F (2005)
Min Temperature 26°F 33°F 4°F (1950)
Degree Days
Heating Degree Days 32 25  
Month to date heating degree days 473  
Cooling Degree Days 0 0  
Month to date cooling degree days 0  
Year to date cooling degree days 0  
Moisture
Dew Point 31°F   
Average Humidity 95    
Maximum Humidity 100    
Minimum Humidity 80    
Precipitation
Precipitation 0.00 in 0.15 in 1.13 in (1968)
Month to date precipitation 2.78  
Year to date precipitation 2.78  
Wind
Wind Speed 2 mph   
Max Wind Speed 7 mph   
Max Gust Speed mph   
Visibility 1 miles   
Events Fog   

Key: T is trace of precipitation, MM is missing value
Source: NWS Daily Summary
Time(PST)TemperatureDew PointHumidity Pressure Visibility Wind DirectionWind SpeedGust SpeedPrecipitationEvents Conditions
12:06 AM 28.4°F 26.6°F 93% 30.29 in 3.0 miles Calm Calm - N/A   Partly Cloudy
12:49 AM 28.4°F 24.8°F 86% 30.29 in 3.0 miles Calm Calm - N/A   Mostly Cloudy
12:53 AM 27.0°F 25.0°F 92% 30.32 in 1.0 miles Calm Calm - N/A   Unknown
12:56 AM 26.6°F 24.8°F 93% 30.29 in 0.8 miles Calm Calm - N/A   Unknown
1:03 AM 28.4°F 26.6°F 93% 30.29 in 0.2 miles Calm Calm - N/A   Unknown
1:53 AM 28.9°F 27.0°F 92% 30.32 in 0.2 miles Calm Calm - N/A   Unknown
2:53 AM 32.0°F 32.0°F 100% 30.31 in 0.2 miles Calm Calm - N/A   Unknown
3:53 AM 30.9°F 30.9°F 100% 30.32 in 0.2 miles NNE 3.5 mph - N/A   Unknown
4:53 AM 30.9°F 30.9°F 100% 30.31 in 0.2 miles Calm Calm - N/A   Unknown
5:50 AM 30.2°F 30.2°F 100% 30.27 in 0.2 miles Calm Calm - N/A   Unknown
5:53 AM 30.9°F 30.9°F 100% 30.30 in 0.2 miles Calm Calm - N/A   Unknown
6:01 AM 32.0°F 30.2°F 93% 30.27 in 0.2 miles Calm Calm - N/A   Unknown
6:53 AM 30.9°F 30.9°F 100% 30.30 in 0.2 miles NNE 3.5 mph - N/A Fog Light Freezing Fog
7:04 AM 30.2°F 30.2°F 100% 30.28 in 0.2 miles Calm Calm - N/A Fog Light Freezing Fog
7:51 AM 30.2°F 30.2°F 100% 30.30 in 0.2 miles North 4.6 mph - N/A Fog Light Freezing Fog
7:53 AM 30.9°F 30.0°F 96% 30.33 in 0.2 miles North 5.8 mph - N/A Fog Light Freezing Fog
8:53 AM 30.9°F 30.0°F 96% 30.34 in 0.2 miles Calm Calm - N/A Fog Light Freezing Fog
9:02 AM 32.0°F 30.2°F 93% 30.30 in 0.1 miles Calm Calm - N/A Fog Fog
9:33 AM 32.0°F 30.2°F 93% 30.31 in 0.1 miles Calm Calm - N/A Fog Fog
9:43 AM 32.0°F 32.0°F 100% 30.31 in 0.1 miles Calm Calm - N/A Fog Fog
9:53 AM 33.1°F 32.0°F 96% 30.35 in 0.2 miles Calm Calm - N/A Fog Fog
10:00 AM 33.8°F 32.0°F 93% 30.31 in 0.2 miles Calm Calm - N/A Fog Fog
10:16 AM 33.8°F 32.0°F 93% 30.31 in 0.2 miles ENE 3.5 mph - N/A Fog Fog
10:26 AM 33.8°F 32.0°F 93% 30.32 in 0.2 miles Calm Calm - N/A Fog Fog
10:35 AM 33.8°F 32.0°F 93% 30.32 in 0.2 miles ENE 4.6 mph - N/A Fog Fog
10:45 AM 33.8°F 33.8°F 100% 30.32 in 0.2 miles NNE 4.6 mph - N/A Fog Fog
10:53 AM 34.0°F 33.1°F 96% 30.36 in 0.2 miles NE 3.5 mph - N/A Fog Fog
11:36 AM 33.8°F 33.8°F 100% 30.33 in 0.2 miles NE 4.6 mph - N/A Fog Fog
11:53 AM 35.1°F 35.1°F 100% 30.36 in 0.2 miles Calm Calm - N/A Fog Fog
12:07 PM 35.6°F 35.6°F 100% 30.32 in 1.0 miles Calm Calm - N/A   Overcast
12:24 PM 35.6°F 35.6°F 100% 30.31 in 2.5 miles Calm Calm - N/A   Overcast
12:31 PM 37.4°F 35.6°F 93% 30.31 in 3.0 miles NE 4.6 mph - N/A   Overcast
12:39 PM 37.4°F 37.4°F 100% 30.31 in 2.5 miles NNE 4.6 mph - N/A   Overcast
12:53 PM 37.0°F 37.0°F 100% 30.34 in 2.5 miles Variable 3.5 mph - N/A   Overcast
1:51 PM 39.2°F 37.4°F 93% 30.31 in 2.5 miles North 4.6 mph - N/A   Overcast
1:53 PM 37.9°F 36.0°F 93% 30.34 in 2.5 miles NNE 4.6 mph - N/A   Overcast
2:00 PM 37.4°F 35.6°F 93% 30.31 in 4.0 miles North 6.9 mph - N/A   Overcast
2:11 PM 37.4°F 35.6°F 93% 30.31 in 2.5 miles North 6.9 mph - N/A   Overcast
2:38 PM 37.4°F 35.6°F 93% 30.31 in 2.5 miles NNE 5.8 mph - N/A   Overcast
2:53 PM 37.0°F 35.1°F 93% 30.33 in 2.5 miles Calm Calm - N/A   Mostly Cloudy
3:41 PM 37.4°F 35.6°F 93% 30.32 in 1.8 miles North 3.5 mph - N/A   Mostly Cloudy
3:53 PM 36.0°F 35.1°F 97% 30.35 in 1.2 miles NNE 3.5 mph - N/A   Overcast
4:16 PM 35.6°F 33.8°F 93% 30.32 in 0.5 miles North 4.6 mph - N/A Fog Fog
4:31 PM 33.8°F 33.8°F 100% 30.31 in 0.2 miles North 4.6 mph - N/A Fog Fog
4:53 PM 34.0°F 33.1°F 96% 30.35 in 0.2 miles NNE 4.6 mph - N/A Fog Fog
5:53 PM 32.0°F 32.0°F 100% 30.35 in 0.2 miles NNE 5.8 mph - N/A Fog Fog
6:53 PM 32.0°F 32.0°F 100% 30.35 in 0.2 miles NNE 5.8 mph - N/A Fog Fog
7:53 PM 30.9°F 30.9°F 100% 30.36 in 0.2 miles NNE 5.8 mph - N/A Fog Light Freezing Fog
8:50 PM 30.2°F 30.2°F 100% 30.33 in 0.2 miles North 5.8 mph - N/A Fog Light Freezing Fog
8:51 PM 30.9°F 30.0°F 96% 30.36 in 0.2 miles NNE 5.8 mph - N/A Fog Light Freezing Fog
9:46 PM 30.2°F 30.2°F 100% 30.34 in 0.2 miles NNE 3.5 mph - N/A Fog Light Freezing Fog
9:53 PM 30.0°F 28.0°F 92% 30.38 in 0.2 miles NNE 4.6 mph - N/A Fog Light Freezing Fog
10:04 PM 30.2°F 28.4°F 93% 30.34 in 0.2 miles NNE 4.6 mph - N/A Fog Light Freezing Fog
10:32 PM 30.2°F 26.6°F 86% 30.35 in 0.2 miles NNE 4.6 mph - N/A Fog Light Freezing Fog
10:39 PM 30.2°F 24.8°F 80% 30.35 in 0.5 miles North 4.6 mph - N/A   Haze
10:53 PM 30.9°F 26.1°F 82% 30.39 in 0.5 miles NNE 4.6 mph - N/A   Haze
11:53 PM 30.9°F 27.0°F 85% 30.38 in 0.5 miles NNE 4.6 mph - N/A Fog Light Freezing Fog
Moon Phase
Jan. 18 Jan. 18 Jan. 26 Feb. 03 Feb. 10
Sunrise:07:55 AM (PST) Moon Rise:10:54 AM (PST)1/18
Sunset:04:46 PM (PST) Moon Set:12:22 AM (PST)1/18

Copyright © 2014 The Weather Underground, Inc.